Weather History for Meknes, Morocco

Change the Weather History Date:

Sunday, May 5, 2013

  Actual Average Record
Temperature  
Mean Temperature 66 °F -  
Max Temperature 81 °F - - ()
Min Temperature 50 °F - - ()
Growing Degree Days 16 (Base 50)    
Moisture  
Dew Point 44 °F    
Average Humidity 44    
Maximum Humidity 76    
Minimum Humidity 17    
Precipitation  
Precipitation 0.00 in - - ()
Sea Level Pressure  
Sea Level Pressure 30.05 in    
Wind  
Wind Speed 7 mph ()    
Max Wind Speed 13 mph    
Max Gust Speed -    
Visibility 6.1 miles    
Events      
T = Trace of Precipitation, MM = Missing Value Source: Averaged Metar Reports

Daily Weather History Graph

Daily Weather History Graph

Search for Another Location

Airport:

Trip Planner

Search our weather history database for the weather conditions in past years. The results will help you decide how hot, cold, wet, or windy it might be!

Date:

Astronomy

May. 05, 2013 Rise Set
Actual Time 6:29 AM WEST 8:08 PM WEST
Civil Twilight 6:02 AM WEST 8:35 PM WEST
Nautical Twilight 5:29 AM WEST 9:08 PM WEST
Astronomical Twilight 4:55 AM WEST 9:42 PM WEST
Moon 3:39 AM WEST (5/5) 4:05 PM WEST (5/5)
Length of Visible Light 14h 33m
Length of Day
13h 39m
Waning Crescent, 20% of the Moon is Illuminated
May 5
Waning Crescent
May 10
New
May 18
First Quarter
May 25
Full
May 31
Last Quarter

Hourly Weather History & Observations

Time (WEST) Temp. Dew Point Humidity Pressure Visibility Wind Dir Wind Speed Gust Speed Precip Events Conditions
1:00 AM 54 °F 43 °F 55% 30.07 in 6 mi East 8.1 mph - -  
4:00 AM 52 °F 43 °F 63% 30.04 in 6 mi East 12.7 mph - -  
4:00 AM 51.8 °F 42.8 °F 71% 30.04 in - East 12.7 mph - N/A   Clear
5:00 AM 51.8 °F 42.8 °F 71% 30.04 in - North - - N/A   Clear
6:00 AM 51.8 °F 44.6 °F 76% 30.04 in - North - - N/A   Clear
7:00 AM 51 °F 43 °F 65% 30.06 in 6 mi ESE 9.2 mph - -   Clear
7:00 AM 51.8 °F 42.8 °F 71% 30.04 in - ESE 9.2 mph - N/A   Clear
9:00 AM 62.6 °F 46.4 °F 55% 30.06 in - East 9.2 mph - N/A   Clear
10:00 AM 67 °F 48 °F 39% 30.03 in 6 mi East 6.9 mph - -   Clear
11:00 AM 69.8 °F 44.6 °F 40% 30.09 in 6.2 mi East 6.9 mph - N/A   Partly Cloudy
12:00 PM 73.4 °F 44.6 °F 36% 30.09 in 6.2 mi ENE 5.8 mph - N/A   Partly Cloudy
1:00 PM 77 °F 44 °F 20% 29.99 in 6 mi NNE 2.3 mph - -   Scattered Clouds
1:00 PM 77.0 °F 44.6 °F 32% 30.06 in 6.2 mi NNE 2.3 mph - N/A   Scattered Clouds
2:00 PM 77.0 °F 44.6 °F 32% 30.06 in 6.2 mi NW 9.2 mph - N/A   Mostly Cloudy
3:00 PM 78.8 °F 39.2 °F 24% 30.06 in 6.2 mi NW 4.6 mph - N/A   Mostly Cloudy
4:00 PM 78 °F 42 °F 17% 29.96 in 6 mi West 4.6 mph - -   Scattered Clouds
4:00 PM 78.8 °F 41.0 °F 26% 30.04 in 6.2 mi West 4.6 mph - N/A   Mostly Cloudy
5:00 PM 77.0 °F 42.8 °F 29% 30.04 in 6.2 mi NW 6.9 mph - N/A   Mostly Cloudy
6:00 PM 75.2 °F 42.8 °F 31% 30.04 in 6.2 mi WNW 4.6 mph - N/A   Mostly Cloudy
7:00 PM 77 °F 43 °F 19% 29.97 in 6 mi NW 10.4 mph - -   Scattered Clouds
7:00 PM 77.0 °F 42.8 °F 29% 30.06 in 6.2 mi NW 10.4 mph - N/A   Mostly Cloudy
8:00 PM 71.6 °F 44.6 °F 38% 30.06 in 6.2 mi NW 6.9 mph - N/A   Partly Cloudy
9:00 PM 69.8 °F 44.6 °F 40% 30.09 in 6.2 mi NW 8.1 mph - N/A   Partly Cloudy
10:00 PM 62 °F 46 °F 44% 30.08 in 6 mi West 5.8 mph - -   Scattered Clouds
10:00 PM 62.6 °F 46.4 °F 55% 30.12 in 6.2 mi West 3.5 mph - N/A   Partly Cloudy
11:00 PM 60.8 °F 46.4 °F 59% 30.15 in - WSW 3.5 mph - N/A   Clear